Location: Borea
(45.6167°N, 23.0167°E)
Time: 15:43:12
(UTC+00:00)

Cosmos 1892 Rocket - Visible Passes

Search period start: 08 September 2024 00:00
Search period end: 18 September 2024 00:00
Orbit: 602 x 629 km, 82.5° (Epoch: 07 September)

Date Brightness Start Highest point End Pass type
(mag) Time Alt. Az. Time Alt. Az. Time Alt. Az.
08 Sep 5.3 00:41:26 10° NNE 00:45:16 28° ENE 00:46:01 27° E visible
08 Sep 4.5 02:19:13 10° NNW 02:23:00 28° W 02:23:03 28° W visible
09 Sep 4.4 00:57:21 10° N 01:01:19 48° ENE 01:01:19 48° ENE visible
09 Sep 5.3 02:36:14 10° NW 02:38:21 16° WNW 02:38:21 16° WNW visible
10 Sep 4.3 01:13:29 10° N 01:16:43 48° N 01:16:43 48° N visible
10 Sep 6.3 23:53:09 10° NNE 23:55:09 16° NE 23:55:09 16° NE visible
11 Sep 4.9 01:29:50 10° NNW 01:32:11 29° NNW 01:32:11 29° NNW visible
12 Sep 6.0 00:08:41 10° NNE 00:10:42 21° NE 00:10:42 21° NE visible
12 Sep 5.5 01:46:24 10° NNW 01:47:44 18° NW 01:47:44 18° NW visible
13 Sep 5.8 00:24:34 10° N 00:26:18 22° NNE 00:26:18 22° NNE visible
13 Sep 6.0 02:03:19 10° NW 02:03:20 10° NW 02:03:20 10° NW visible
14 Sep 5.9 00:40:40 10° N 00:41:56 19° N 00:41:56 19° N visible
14 Sep 6.8 23:20:24 10° NNE 23:20:34 11° NNE 23:20:34 11° NNE visible
15 Sep 6.1 00:56:58 10° NNW 00:57:37 14° NNW 00:57:37 14° NNW visible
15 Sep 6.7 23:35:52 10° NNE 23:36:17 12° NNE 23:36:17 12° NNE visible
16 Sep 6.6 23:51:43 10° N 23:52:01 12° N 23:52:01 12° N visible
